| time (UTC) | temp F | wind direction | speed MPH | gust MPH | rain 1hr in | rain 24hr in | rain mn in | humidity % | barometer mb |
| 20260508091016 | 58 | 0 | 0.0 | 0.0 | 0.00 | 0.01 | 0.00 | 90 | 1016.9 |
| 20260508090017 | 58 | 0 | 0.0 | 0.0 | 0.00 | 0.01 | 0.00 | 89 | 1016.9 |
| 20260508085516 | 57 | 0 | 0.0 | 0.0 | 0.00 | 0.01 | 0.00 | 90 | 1016.7 |
| 20260508085017 | 57 | 0 | 0.0 | 0.0 | 0.00 | 0.01 | 0.00 | 90 | 1016.8 |
| 20260508084516 | 57 | 0 | 0.0 | 0.0 | 0.00 | 0.01 | 0.00 | 90 | 1016.7 |
| 20260508083016 | 56 | 0 | 0.0 | 0.0 | 0.00 | 0.01 | 0.00 | 90 | 1016.6 |
| 20260508082516 | 56 | 0 | 0.0 | 0.0 | 0.00 | 0.01 | 0.00 | 91 | 1016.6 |
| 20260508082017 | 55 | 0 | 0.0 | 0.0 | 0.00 | 0.01 | 0.00 | 91 | 1016.6 |
| 20260508081516 | 54 | 0 | 0.0 | 0.0 | 0.00 | 0.01 | 0.00 | 91 | 1016.4 |
| 20260508081016 | 55 | 0 | 0.0 | 0.0 | 0.00 | 0.01 | 0.00 | 91 | 1016.5 |
| 20260508080516 | 55 | 0 | 0.0 | 0.0 | 0.00 | 0.01 | 0.00 | 90 | 1016.6 |
| 20260508080017 | 55 | 0 | 0.0 | 0.0 | 0.00 | 0.01 | 0.00 | 90 | 1016.7 |
| 20260508075016 | 55 | 0 | 0.0 | 0.0 | 0.00 | 0.01 | 0.00 | 91 | 1016.6 |
| 20260508074517 | 55 | 0 | 0.0 | 0.0 | 0.00 | 0.01 | 0.00 | 91 | 1016.6 |
| 20260508074016 | 55 | 0 | 0.0 | 0.0 | 0.00 | 0.01 | 0.00 | 91 | 1016.7 |
| 20260508073516 | 55 | 0 | 0.0 | 0.0 | 0.00 | 0.01 | 0.00 | 91 | 1016.7 |
| 20260508073017 | 55 | 0 | 0.0 | 0.0 | 0.00 | 0.01 | 0.00 | 91 | 1016.6 |
| 20260508072516 | 54 | 0 | 0.0 | 0.0 | 0.00 | 0.01 | 0.00 | 91 | 1016.6 |
| 20260508071016 | 53 | 0 | 0.0 | 0.0 | 0.00 | 0.01 | 0.00 | 90 | 1016.3 |
| 20260508070516 | 53 | 0 | 0.0 | 0.0 | 0.00 | 0.01 | 0.00 | 90 | 1016.3 |
| 20260508065017 | 51 | 0 | 0.0 | 0.0 | 0.00 | 0.01 | 0.00 | 81 | 1016.0 |
| 20260508064517 | 49 | 0 | 0.0 | 0.0 | 0.00 | 0.01 | 0.00 | 77 | 1015.8 |
| 20260508064016 | 49 | 0 | 0.0 | 0.0 | 0.00 | 0.01 | 0.00 | 73 | 1015.7 |
| 20260508063516 | 48 | 0 | 0.0 | 0.0 | 0.00 | 0.01 | 0.00 | 70 | 1015.3 |
| 20260508063017 | 48 | 0 | 0.0 | 0.0 | 0.00 | 0.01 | 0.00 | 69 | 1015.4 |
| 20260508062516 | 48 | 0 | 0.0 | 0.0 | 0.00 | 0.01 | 0.00 | 68 | 1015.6 |
| 20260508062016 | 47 | 0 | 0.0 | 0.0 | 0.00 | 0.01 | 0.00 | 68 | 1015.3 |
| 20260508061543 | 47 | 0 | 0.0 | 0.0 | 0.00 | 0.01 | 0.00 | 68 | 1015.2 |
| 20260508061016 | 46 | 0 | 0.0 | 0.0 | 0.00 | 0.01 | 0.00 | 68 | 1015.2 |
| 20260508060016 | 45 | 0 | 0.0 | 0.0 | 0.00 | 0.01 | 0.00 | 68 | 1014.9 |
| 20260508055016 | 43 | 0 | 0.0 | 0.0 | 0.00 | 0.01 | 0.00 | 69 | 1014.4 |
| 20260508054016 | 41 | 0 | 0.0 | 0.0 | 0.00 | 0.01 | 0.00 | 72 | 1014.0 |
| 20260508053517 | 40 | 0 | 0.0 | 0.0 | 0.00 | 0.01 | 0.00 | 72 | 1014.1 |
| 20260508053016 | 40 | 0 | 0.0 | 0.0 | 0.00 | 0.01 | 0.00 | 72 | 1013.9 |
| 20260508052518 | 40 | 0 | 0.0 | 0.0 | 0.00 | 0.01 | 0.00 | 73 | 1013.7 |
| 20260508052016 | 40 | 0 | 0.0 | 0.0 | 0.00 | 0.01 | 0.00 | 73 | 1014.0 |
| 20260508051545 | 40 | 0 | 0.0 | 0.0 | 0.00 | 0.01 | 0.00 | 73 | 1013.7 |
| 20260508051016 | 39 | 0 | 0.0 | 0.0 | 0.00 | 0.01 | 0.00 | 73 | 1013.5 |
| 20260508050516 | 39 | 0 | 0.0 | 0.0 | 0.00 | 0.01 | 0.00 | 73 | 1013.4 |
| 20260508050016 | 39 | 0 | 0.0 | 0.0 | 0.00 | 0.01 | 0.00 | 73 | 1013.3 |
| 20260508045517 | 39 | 0 | 0.0 | 0.0 | 0.00 | 0.01 | 0.00 | 74 | 1013.3 |
| 20260508045016 | 39 | 0 | 0.0 | 0.0 | 0.00 | 0.01 | 0.00 | 74 | 1013.1 |
| 20260508044516 | 39 | 0 | 0.0 | 0.0 | 0.00 | 0.01 | 0.00 | 74 | 1013.1 |
| 20260508044016 | 38 | 0 | 0.0 | 0.0 | 0.00 | 0.01 | 0.00 | 74 | 1013.1 |
| 20260508042516 | 38 | 0 | 0.0 | 0.0 | 0.00 | 0.01 | 0.00 | 75 | 1013.0 |
| 20260508042016 | 38 | 0 | 0.0 | 0.0 | 0.00 | 0.01 | 0.00 | 76 | 1012.9 |
| 20260508041517 | 37 | 0 | 0.0 | 0.0 | 0.00 | 0.01 | 0.00 | 76 | 1012.9 |
| 20260508041016 | 37 | 0 | 0.0 | 0.0 | 0.00 | 0.01 | 0.00 | 77 | 1012.8 |
| 20260508040516 | 37 | 0 | 0.0 | 0.0 | 0.00 | 0.01 | 0.00 | 78 | 1012.6 |
| 20260508040017 | 37 | 0 | 0.0 | 0.0 | 0.00 | 0.01 | 0.00 | 79 | 1012.6 |
| 20260508035516 | 37 | 0 | 0.0 | 0.0 | 0.00 | 0.01 | 0.00 | 79 | 1012.6 |
| 20260508034517 | 37 | 0 | 0.0 | 0.0 | 0.00 | 0.01 | 0.00 | 80 | 1012.6 |
| 20260508034016 | 37 | 0 | 0.0 | 0.0 | 0.00 | 0.01 | 0.00 | 80 | 1012.6 |
| 20260508033017 | 38 | 0 | 0.0 | 0.0 | 0.00 | 0.01 | 0.00 | 81 | 1012.7 |
| 20260508032516 | 38 | 0 | 0.0 | 0.0 | 0.00 | 0.01 | 0.00 | 81 | 1012.5 |
| 20260508032016 | 38 | 0 | 0.0 | 0.0 | 0.00 | 0.01 | 0.00 | 81 | 1012.6 |
| 20260508031520 | 38 | 0 | 0.0 | 0.0 | 0.00 | 0.01 | 0.00 | 82 | 1012.5 |
| 20260508031016 | 39 | 0 | 0.0 | 0.0 | 0.00 | 0.01 | 0.00 | 83 | 1012.5 |
| 20260508030542 | 39 | 0 | 0.0 | 0.0 | 0.00 | 0.01 | 0.00 | 84 | 1012.7 |
| 20260508030017 | 40 | 0 | 0.0 | 0.0 | 0.00 | 0.01 | 0.00 | 83 | 1012.9 |
| 20260508025519 | 40 | 0 | 0.0 | 0.0 | 0.00 | 0.01 | 0.00 | 81 | 1012.9 |
| 20260508025016 | 40 | 0 | 0.0 | 0.0 | 0.00 | 0.01 | 0.00 | 81 | 1012.9 |
| 20260508024517 | 40 | 0 | 0.0 | 0.0 | 0.00 | 0.01 | 0.00 | 82 | 1012.9 |
| 20260508024017 | 40 | 0 | 0.0 | 0.0 | 0.00 | 0.01 | 0.00 | 82 | 1012.9 |
| 20260508023516 | 41 | 0 | 0.0 | 0.0 | 0.00 | 0.01 | 0.00 | 82 | 1013.0 |
| 20260508023016 | 41 | 0 | 0.0 | 0.0 | 0.00 | 0.01 | 0.00 | 82 | 1012.9 |
| 20260508022516 | 41 | 0 | 0.0 | 0.0 | 0.00 | 0.01 | 0.00 | 82 | 1013.0 |
| 20260508021517 | 41 | 0 | 0.0 | 0.0 | 0.00 | 0.01 | 0.00 | 82 | 1012.9 |
| 20260508021017 | 41 | 0 | 0.0 | 0.0 | 0.00 | 0.01 | 0.00 | 83 | 1013.0 |
| 20260508020516 | 41 | 0 | 0.0 | 0.0 | 0.00 | 0.01 | 0.00 | 83 | 1013.0 |
| 20260508020017 | 41 | 0 | 0.0 | 0.0 | 0.00 | 0.01 | 0.00 | 84 | 1013.1 |
| 20260508015516 | 42 | 0 | 0.0 | 0.0 | 0.00 | 0.01 | 0.00 | 84 | 1013.1 |
| 20260508015016 | 42 | 0 | 0.0 | 0.0 | 0.00 | 0.01 | 0.00 | 83 | 1013.2 |
| 20260508014517 | 42 | 0 | 0.0 | 0.0 | 0.00 | 0.01 | 0.00 | 83 | 1013.4 |
| 20260508014017 | 43 | 0 | 0.0 | 0.0 | 0.00 | 0.01 | 0.00 | 82 | 1013.3 |
| 20260508013516 | 43 | 0 | 0.0 | 0.0 | 0.00 | 0.01 | 0.00 | 81 | 1013.2 |
| 20260508013017 | 43 | 0 | 0.0 | 0.0 | 0.00 | 0.01 | 0.00 | 82 | 1013.2 |
| 20260508012516 | 43 | 0 | 0.0 | 0.0 | 0.00 | 0.01 | 0.00 | 82 | 1013.2 |
| 20260508012017 | 43 | 0 | 0.0 | 0.0 | 0.00 | 0.01 | 0.00 | 83 | 1013.3 |
| 20260508011516 | 42 | 0 | 0.0 | 0.0 | 0.00 | 0.01 | 0.00 | 84 | 1013.3 |
| 20260508011016 | 42 | 0 | 0.0 | 0.0 | 0.00 | 0.01 | 0.00 | 85 | 1013.3 |
| 20260508010016 | 43 | 0 | 0.0 | 0.0 | 0.00 | 0.01 | 0.00 | 85 | 1013.4 |
| 20260508005017 | 43 | 0 | 0.0 | 0.0 | 0.00 | 0.01 | 0.00 | 85 | 1013.6 |
| 20260508004016 | 44 | 0 | 0.0 | 0.0 | 0.00 | 0.01 | 0.00 | 85 | 1013.5 |
| 20260508003016 | 44 | 0 | 0.0 | 0.0 | 0.00 | 0.01 | 0.00 | 86 | 1013.7 |
| 20260508001517 | 44 | 0 | 0.0 | 0.0 | 0.00 | 0.01 | 0.00 | 86 | 1013.9 |
| 20260508001016 | 44 | 0 | 0.0 | 0.0 | 0.00 | 0.01 | 0.00 | 87 | 1013.9 |
| 20260508000017 | 44 | 0 | 0.0 | 0.0 | 0.00 | 0.01 | 0.00 | 88 | 1014.1 |
| 20260507235516 | 45 | 0 | 0.0 | 0.0 | 0.00 | 0.01 | 0.00 | 88 | 1014.1 |
| 20260507235017 | 45 | 0 | 0.0 | 0.0 | 0.00 | 0.01 | 0.00 | 88 | 1014.2 |
| 20260507234517 | 45 | 0 | 0.0 | 0.0 | 0.00 | 0.01 | 0.00 | 87 | 1014.2 |
| 20260507234017 | 45 | 0 | 0.0 | 0.0 | 0.00 | 0.01 | 0.00 | 87 | 1014.2 |
| 20260507233517 | 45 | 0 | 0.0 | 0.0 | 0.00 | 0.01 | 0.00 | 87 | 1014.3 |
| 20260507233016 | 46 | 0 | 0.0 | 0.0 | 0.00 | 0.01 | 0.00 | 87 | 1014.3 |
| 20260507232016 | 46 | 0 | 0.0 | 0.0 | 0.00 | 0.01 | 0.00 | 87 | 1014.4 |
| 20260507231516 | 46 | 0 | 0.0 | 0.0 | 0.00 | 0.01 | 0.00 | 87 | 1014.5 |
| 20260507231017 | 46 | 0 | 0.0 | 0.0 | 0.00 | 0.01 | 0.00 | 87 | 1014.5 |
| 20260507230517 | 46 | 0 | 0.0 | 0.0 | 0.00 | 0.01 | 0.00 | 87 | 1014.5 |
| 20260507230017 | 46 | 0 | 0.0 | 0.0 | 0.00 | 0.01 | 0.00 | 88 | 1014.6 |
| 20260507225516 | 46 | 0 | 0.0 | 0.0 | 0.00 | 0.01 | 0.00 | 89 | 1014.6 |
| 20260507224516 | 47 | 0 | 0.0 | 0.0 | 0.00 | 0.01 | 0.00 | 88 | 1014.7 |
| 20260507224016 | 47 | 0 | 0.0 | 0.0 | 0.00 | 0.01 | 0.00 | 88 | 1014.7 |
| 20260507223516 | 47 | 0 | 0.0 | 0.0 | 0.00 | 0.01 | 0.00 | 89 | 1014.8 |
| 20260507223016 | 47 | 0 | 0.0 | 0.0 | 0.00 | 0.01 | 0.00 | 89 | 1014.9 |
| 20260507222517 | 47 | 0 | 0.0 | 0.0 | 0.00 | 0.01 | 0.00 | 89 | 1014.9 |
| 20260507221517 | 48 | 0 | 0.0 | 0.0 | 0.00 | 0.01 | 0.00 | 90 | 1014.9 |
| 20260507221016 | 48 | 0 | 0.0 | 0.0 | 0.00 | 0.01 | 0.00 | 90 | 1015.0 |
| 20260507215517 | 49 | 0 | 0.0 | 0.0 | 0.00 | 0.01 | 0.01 | 90 | 1015.1 |
| 20260507215016 | 49 | 0 | 0.0 | 0.0 | 0.00 | 0.01 | 0.01 | 90 | 1014.9 |
| 20260507214516 | 49 | 0 | 0.0 | 0.0 | 0.00 | 0.01 | 0.01 | 91 | 1015.1 |
| 20260507214017 | 50 | 0 | 0.0 | 0.0 | 0.00 | 0.01 | 0.01 | 91 | 1015.0 |
| 20260507213516 | 50 | 0 | 0.0 | 0.0 | 0.00 | 0.01 | 0.01 | 91 | 1015.0 |
| 20260507213017 | 50 | 0 | 0.0 | 0.0 | 0.00 | 0.01 | 0.01 | 91 | 1015.1 |
| 20260507212517 | 50 | 0 | 0.0 | 0.0 | 0.00 | 0.01 | 0.01 | 91 | 1015.1 |
| 20260507212017 | 51 | 0 | 0.0 | 0.0 | 0.00 | 0.01 | 0.01 | 91 | 1015.2 |
| 20260507211516 | 51 | 0 | 0.0 | 0.0 | 0.00 | 0.01 | 0.01 | 91 | 1015.2 |
| 20260507211016 | 51 | 0 | 0.0 | 0.0 | 0.00 | 0.01 | 0.01 | 91 | 1015.3 |
| 20260507210516 | 51 | 0 | 0.0 | 0.0 | 0.00 | 0.01 | 0.01 | 91 | 1015.4 |
| 20260507210017 | 51 | 0 | 0.0 | 0.0 | 0.00 | 0.01 | 0.01 | 91 | 1015.6 |
| 20260507205517 | 51 | 0 | 0.0 | 0.0 | 0.00 | 0.01 | 0.01 | 91 | 1015.3 |
| 20260507205017 | 51 | 0 | 0.0 | 0.0 | 0.00 | 0.01 | 0.01 | 91 | 1015.3 |
| 20260507204516 | 51 | 0 | 0.0 | 0.0 | 0.00 | 0.01 | 0.01 | 91 | 1015.3 |
| 20260507204017 | 51 | 0 | 0.0 | 0.0 | 0.00 | 0.01 | 0.01 | 91 | 1015.3 |
| 20260507203516 | 51 | 0 | 0.0 | 0.0 | 0.00 | 0.01 | 0.01 | 91 | 1015.4 |
| 20260507202516 | 51 | 0 | 0.0 | 0.0 | 0.00 | 0.01 | 0.01 | 91 | 1015.3 |
| 20260507201017 | 51 | 0 | 0.0 | 0.0 | 0.00 | 0.01 | 0.01 | 91 | 1015.1 |
| 20260507200516 | 51 | 0 | 0.0 | 0.0 | 0.00 | 0.02 | 0.01 | 91 | 1015.1 |
| 20260507200016 | 51 | 0 | 0.0 | 0.0 | 0.00 | 0.02 | 0.01 | 91 | 1015.0 |
| 20260507195516 | 51 | 0 | 0.0 | 0.0 | 0.00 | 0.02 | 0.01 | 91 | 1015.0 |
| 20260507195017 | 51 | 0 | 0.0 | 0.0 | 0.00 | 0.02 | 0.01 | 91 | 1015.0 |
| 20260507194516 | 51 | 0 | 0.0 | 0.0 | 0.00 | 0.02 | 0.01 | 91 | 1015.0 |
| 20260507194016 | 51 | 0 | 0.0 | 0.0 | 0.00 | 0.02 | 0.01 | 91 | 1015.0 |
| 20260507193516 | 51 | 0 | 0.0 | 0.0 | 0.00 | 0.02 | 0.01 | 91 | 1014.9 |
| 20260507192516 | 51 | 0 | 0.0 | 0.0 | 0.00 | 0.02 | 0.01 | 91 | 1014.9 |
| 20260507192016 | 51 | 0 | 0.0 | 0.0 | 0.00 | 0.02 | 0.01 | 91 | 1014.8 |
| 20260507191516 | 51 | 0 | 0.0 | 0.0 | 0.00 | 0.02 | 0.01 | 91 | 1014.9 |
| 20260507191017 | 51 | 0 | 0.0 | 0.0 | 0.00 | 0.02 | 0.01 | 91 | 1014.8 |
| 20260507190517 | 52 | 0 | 0.0 | 0.0 | 0.00 | 0.02 | 0.01 | 91 | 1014.8 |
| 20260507185517 | 52 | 0 | 0.0 | 0.0 | 0.00 | 0.02 | 0.01 | 90 | 1014.7 |
| 20260507184517 | 53 | 0 | 0.0 | 0.0 | 0.00 | 0.02 | 0.01 | 90 | 1014.5 |
| 20260507184017 | 53 | 0 | 0.0 | 0.0 | 0.00 | 0.02 | 0.01 | 90 | 1014.7 |
| 20260507183516 | 54 | 0 | 0.0 | 0.0 | 0.00 | 0.02 | 0.01 | 90 | 1014.7 |
| 20260507182516 | 55 | 0 | 0.0 | 0.0 | 0.00 | 0.02 | 0.01 | 89 | 1014.6 |
| 20260507182016 | 55 | 0 | 0.0 | 0.0 | 0.00 | 0.02 | 0.01 | 89 | 1014.6 |
| 20260507181516 | 56 | 0 | 0.0 | 0.0 | 0.00 | 0.02 | 0.01 | 89 | 1014.6 |
| 20260507181016 | 56 | 0 | 0.0 | 0.0 | 0.00 | 0.02 | 0.01 | 88 | 1014.6 |
| 20260507180516 | 56 | 0 | 0.0 | 0.0 | 0.00 | 0.02 | 0.01 | 88 | 1014.6 |
| 20260507180017 | 56 | 0 | 0.0 | 0.0 | 0.00 | 0.02 | 0.01 | 88 | 1014.6 |
| 20260507175016 | 57 | 0 | 0.0 | 0.0 | 0.00 | 0.02 | 0.01 | 88 | 1014.6 |
| 20260507174517 | 57 | 0 | 0.0 | 0.0 | 0.00 | 0.02 | 0.01 | 87 | 1014.6 |
| 20260507174017 | 57 | 0 | 0.0 | 0.0 | 0.00 | 0.02 | 0.01 | 87 | 1014.6 |
| 20260507173016 | 57 | 0 | 0.0 | 0.0 | 0.00 | 0.02 | 0.01 | 88 | 1014.6 |
| 20260507172519 | 57 | 0 | 0.0 | 0.0 | 0.00 | 0.02 | 0.01 | 88 | 1014.5 |
| 20260507172016 | 57 | 0 | 0.0 | 0.0 | 0.00 | 0.02 | 0.01 | 88 | 1014.6 |
| 20260507171516 | 57 | 0 | 0.0 | 0.0 | 0.00 | 0.02 | 0.01 | 87 | 1014.5 |
| 20260507171016 | 57 | 0 | 0.0 | 0.0 | 0.00 | 0.02 | 0.01 | 87 | 1014.6 |
| 20260507170516 | 57 | 0 | 0.0 | 0.0 | 0.00 | 0.02 | 0.01 | 87 | 1014.6 |
| 20260507170017 | 58 | 0 | 0.0 | 0.0 | 0.00 | 0.02 | 0.01 | 86 | 1014.6 |
| 20260507165017 | 57 | 0 | 0.0 | 0.0 | 0.00 | 0.02 | 0.01 | 88 | 1014.5 |
| 20260507164516 | 57 | 0 | 0.0 | 0.0 | 0.00 | 0.02 | 0.01 | 88 | 1014.3 |
| 20260507164016 | 57 | 0 | 0.0 | 0.0 | 0.00 | 0.02 | 0.01 | 88 | 1014.3 |
| 20260507163516 | 57 | 0 | 0.0 | 0.0 | 0.00 | 0.02 | 0.01 | 88 | 1014.4 |
| 20260507163016 | 57 | 0 | 0.0 | 0.0 | 0.00 | 0.02 | 0.01 | 87 | 1014.3 |
| 20260507162516 | 57 | 0 | 0.0 | 0.0 | 0.00 | 0.02 | 0.01 | 87 | 1014.4 |
| 20260507162016 | 58 | 0 | 0.0 | 0.0 | 0.00 | 0.02 | 0.01 | 87 | 1014.3 |
| 20260507161516 | 58 | 0 | 0.0 | 0.0 | 0.00 | 0.02 | 0.01 | 86 | 1014.4 |
| 20260507160516 | 58 | 0 | 0.0 | 0.0 | 0.00 | 0.02 | 0.01 | 86 | 1014.4 |
| 20260507160017 | 58 | 0 | 0.0 | 0.0 | 0.00 | 0.02 | 0.01 | 85 | 1014.5 |
| 20260507155516 | 58 | 0 | 0.0 | 0.0 | 0.00 | 0.02 | 0.01 | 86 | 1014.4 |
| 20260507155016 | 58 | 0 | 0.0 | 0.0 | 0.00 | 0.02 | 0.01 | 85 | 1014.3 |
| 20260507154517 | 58 | 0 | 0.0 | 0.0 | 0.00 | 0.02 | 0.01 | 86 | 1014.3 |
| 20260507154017 | 57 | 0 | 0.0 | 0.0 | 0.00 | 0.02 | 0.01 | 86 | 1014.2 |
| 20260507153516 | 57 | 0 | 0.0 | 0.0 | 0.00 | 0.02 | 0.01 | 86 | 1014.2 |
| 20260507153017 | 57 | 0 | 0.0 | 0.0 | 0.00 | 0.02 | 0.01 | 86 | 1014.3 |
| 20260507152016 | 58 | 0 | 0.0 | 0.0 | 0.00 | 0.03 | 0.01 | 86 | 1014.2 |
| 20260507151517 | 58 | 0 | 0.0 | 0.0 | 0.00 | 0.03 | 0.01 | 85 | 1014.3 |
| 20260507151017 | 58 | 0 | 0.0 | 0.0 | 0.00 | 0.03 | 0.01 | 86 | 1014.3 |
| 20260507150516 | 59 | 0 | 0.0 | 0.0 | 0.00 | 0.03 | 0.01 | 85 | 1014.3 |
| 20260507150017 | 59 | 0 | 0.0 | 0.0 | 0.00 | 0.03 | 0.01 | 86 | 1014.3 |
| 20260507145517 | 58 | 0 | 0.0 | 0.0 | 0.00 | 0.03 | 0.01 | 86 | 1014.2 |
| 20260507145017 | 58 | 0 | 0.0 | 0.0 | 0.00 | 0.04 | 0.01 | 85 | 1014.3 |
| 20260507144516 | 59 | 0 | 0.0 | 0.0 | 0.00 | 0.04 | 0.01 | 85 | 1014.3 |
| 20260507143516 | 58 | 0 | 0.0 | 0.0 | 0.00 | 0.04 | 0.01 | 86 | 1014.2 |
| 20260507143016 | 59 | 0 | 0.0 | 0.0 | 0.00 | 0.04 | 0.01 | 85 | 1014.3 |
| 20260507142517 | 59 | 0 | 0.0 | 0.0 | 0.00 | 0.05 | 0.01 | 86 | 1014.3 |
| 20260507142016 | 58 | 0 | 0.0 | 0.0 | 0.00 | 0.05 | 0.01 | 86 | 1014.4 |
| 20260507141017 | 58 | 0 | 0.0 | 0.0 | 0.00 | 0.05 | 0.01 | 86 | 1014.4 |
| 20260507140516 | 58 | 0 | 0.0 | 0.0 | 0.00 | 0.06 | 0.01 | 86 | 1014.2 |
| 20260507140016 | 58 | 0 | 0.0 | 0.0 | 0.00 | 0.06 | 0.01 | 86 | 1014.2 |
| 20260507135517 | 58 | 0 | 0.0 | 0.0 | 0.00 | 0.06 | 0.01 | 86 | 1014.2 |
| 20260507135016 | 58 | 0 | 0.0 | 0.0 | 0.00 | 0.06 | 0.01 | 86 | 1014.3 |
| 20260507134516 | 58 | 0 | 0.0 | 0.0 | 0.00 | 0.06 | 0.01 | 87 | 1014.1 |
| 20260507133516 | 58 | 0 | 0.0 | 0.0 | 0.00 | 0.06 | 0.01 | 87 | 1014.2 |
| 20260507133016 | 57 | 0 | 0.0 | 0.0 | 0.00 | 0.06 | 0.01 | 87 | 1014.2 |
| 20260507132016 | 56 | 0 | 0.0 | 0.0 | 0.00 | 0.07 | 0.01 | 88 | 1014.2 |
| 20260507131517 | 56 | 0 | 0.0 | 0.0 | 0.00 | 0.08 | 0.01 | 88 | 1014.2 |
| 20260507131017 | 56 | 0 | 0.0 | 0.0 | 0.00 | 0.08 | 0.01 | 88 | 1014.1 |
| 20260507130516 | 56 | 0 | 0.0 | 0.0 | 0.00 | 0.08 | 0.01 | 89 | 1014.0 |
| 20260507130017 | 56 | 0 | 0.0 | 0.0 | 0.00 | 0.08 | 0.01 | 89 | 1014.0 |
| 20260507125016 | 56 | 0 | 0.0 | 0.0 | 0.00 | 0.08 | 0.01 | 89 | 1014.0 |
| 20260507124516 | 56 | 0 | 0.0 | 0.0 | 0.00 | 0.08 | 0.01 | 88 | 1014.0 |
| 20260507124016 | 56 | 0 | 0.0 | 0.0 | 0.00 | 0.08 | 0.01 | 88 | 1013.9 |
| 20260507123517 | 56 | 0 | 0.0 | 0.0 | 0.00 | 0.08 | 0.01 | 88 | 1013.9 |
| 20260507123016 | 56 | 0 | 0.0 | 0.0 | 0.00 | 0.08 | 0.01 | 89 | 1013.9 |
| 20260507122516 | 55 | 0 | 0.0 | 0.0 | 0.00 | 0.08 | 0.01 | 89 | 1013.7 |
| 20260507122017 | 55 | 0 | 0.0 | 0.0 | 0.00 | 0.08 | 0.01 | 89 | 1013.6 |
| 20260507121517 | 55 | 0 | 0.0 | 0.0 | 0.00 | 0.08 | 0.01 | 89 | 1013.6 |
| 20260507121016 | 55 | 0 | 0.0 | 0.0 | 0.00 | 0.08 | 0.01 | 89 | 1013.7 |
| 20260507120517 | 55 | 0 | 0.0 | 0.0 | 0.01 | 0.08 | 0.01 | 89 | 1013.7 |
| 20260507120016 | 55 | 0 | 0.0 | 0.0 | 0.01 | 0.08 | 0.01 | 89 | 1013.7 |
| 20260507115517 | 55 | 0 | 0.0 | 0.0 | 0.01 | 0.08 | 0.01 | 89 | 1013.7 |
| 20260507115017 | 55 | 0 | 0.0 | 0.0 | 0.01 | 0.08 | 0.01 | 88 | 1013.6 |
| 20260507114516 | 56 | 0 | 0.0 | 0.0 | 0.01 | 0.08 | 0.01 | 88 | 1013.7 |
| 20260507114017 | 56 | 0 | 0.0 | 0.0 | 0.01 | 0.08 | 0.01 | 88 | 1013.7 |
| 20260507113516 | 55 | 0 | 0.0 | 0.0 | 0.01 | 0.08 | 0.01 | 89 | 1013.6 |
| 20260507113016 | 55 | 0 | 0.0 | 0.0 | 0.01 | 0.08 | 0.01 | 89 | 1013.6 |
| 20260507112541 | 54 | 0 | 0.0 | 0.0 | 0.01 | 0.08 | 0.01 | 90 | 1013.5 |
| 20260507112016 | 53 | 0 | 0.0 | 0.0 | 0.01 | 0.08 | 0.01 | 90 | 1013.5 |
| 20260507111516 | 53 | 0 | 0.0 | 0.0 | 0.01 | 0.08 | 0.01 | 89 | 1013.5 |
| 20260507111016 | 54 | 0 | 0.0 | 0.0 | 0.00 | 0.07 | 0.00 | 89 | 1013.5 |
| 20260507110516 | 54 | 0 | 0.0 | 0.0 | 0.00 | 0.07 | 0.00 | 89 | 1013.6 |
| 20260507110017 | 55 | 0 | 0.0 | 0.0 | 0.00 | 0.07 | 0.00 | 89 | 1013.7 |
| 20260507105516 | 55 | 0 | 0.0 | 0.0 | 0.00 | 0.07 | 0.00 | 89 | 1013.6 |
| 20260507105017 | 55 | 0 | 0.0 | 0.0 | 0.00 | 0.07 | 0.00 | 91 | 1013.7 |
| 20260507104517 | 54 | 0 | 0.0 | 0.0 | 0.00 | 0.07 | 0.00 | 91 | 1013.7 |
| 20260507104016 | 53 | 0 | 0.0 | 0.0 | 0.00 | 0.07 | 0.00 | 91 | 1013.7 |
| 20260507103517 | 53 | 0 | 0.0 | 0.0 | 0.00 | 0.07 | 0.00 | 91 | 1013.6 |
| 20260507103016 | 53 | 0 | 0.0 | 0.0 | 0.00 | 0.07 | 0.00 | 91 | 1013.6 |
| 20260507102516 | 53 | 0 | 0.0 | 0.0 | 0.00 | 0.07 | 0.00 | 91 | 1013.6 |
| 20260507101517 | 53 | 0 | 0.0 | 0.0 | 0.00 | 0.07 | 0.00 | 91 | 1013.5 |
| 20260507101016 | 53 | 0 | 0.0 | 0.0 | 0.00 | 0.07 | 0.00 | 91 | 1013.6 |
| 20260507100517 | 53 | 0 | 0.0 | 0.0 | 0.00 | 0.07 | 0.00 | 91 | 1013.6 |
| 20260507100016 | 52 | 0 | 0.0 | 0.0 | 0.00 | 0.07 | 0.00 | 91 | 1013.6 |
| 20260507095517 | 52 | 0 | 0.0 | 0.0 | 0.00 | 0.07 | 0.00 | 91 | 1013.5 |
| 20260507095016 | 52 | 0 | 0.0 | 0.0 | 0.00 | 0.07 | 0.00 | 90 | 1013.5 |
| 20260507094538 | 51 | 0 | 0.0 | 0.0 | 0.00 | 0.07 | 0.00 | 90 | 1013.4 |
| 20260507094016 | 51 | 0 | 0.0 | 0.0 | 0.00 | 0.07 | 0.00 | 91 | 1013.4 |
| 20260507093516 | 51 | 0 | 0.0 | 0.0 | 0.00 | 0.07 | 0.00 | 91 | 1013.4 |
| 20260507093016 | 51 | 0 | 0.0 | 0.0 | 0.00 | 0.07 | 0.00 | 90 | 1013.4 |
| 20260507092516 | 51 | 0 | 0.0 | 0.0 | 0.00 | 0.07 | 0.00 | 91 | 1013.2 |
| 20260507091516 | 51 | 0 | 0.0 | 0.0 | 0.00 | 0.07 | 0.00 | 90 | 1013.2 |